Location: Cisewo
(53.3833°N, 14.9000°E)
Time: 01:16:01
(UTC+00:00)

USA 229 - Pass Details

Date: 01 August 2021
Orbit: 956 x 1256 km, 63.5° (Epoch: 08 August)

Event Time Altitude Azimuth Distance (km) Brightness Sun altitude
Rises 19:59:38 0° 308° (NW) 3,887 8.9 -8.3°
Reaches altitude 10° 20:02:15 10° 312° (NW) 2,972 7.8 -8.5°
Maximum altitude 20:09:20 65° 34° (NE) 1,272 4.2 -9.3°
Drops below altitude 10° 20:16:55 10° 116° (ESE) 3,167 5.6 -10.0°
Enters shadow 20:17:08 - 117° (ESE) 3,242 5.6 -10.0°
